sat.trackr.live / text

‹ back to catalog

GEESAT-1 09

NORAD 52793 · 2022-058J

PAYLOAD ACTIVE UNKNOWN

§ Identity

Operator
Country
PRC
Launch date
2022-06-02
Launch site
XICLF
Launch vehicle
Mass (kg)
RCS (m²)

External: N2YO · Heavens-Above · Gunter

§ Orbital elements

Epoch: 2026-05-25T03:15:00.548928Z

Period
95.98 min
Inclination
49.9975°
Eccentricity
0.0006459
Mean motion
15.00355018 rev/d
Perigee alt
561.3 km
Apogee alt
570.3 km
Semi-major
6,943.9 km
B*
3.4217e-4
RAAN
291.4314°
Arg perigee
80.1554°
Mean anomaly
280.0120°
Rev number
21,678

§ Raw data

GEESAT-1 091 52793U 22058J   26145.13542302  .00004086  00000+0  34217-3 0  99982 52793  49.9975 291.4314 0006459  80.1554 280.0120 15.00355018216787

JSON: /api/v1/satellites/52793 · /tle

For live sub-satellite position, see the globe view (requires WebGL).

§ Visibility from observer

Set your observer location to see the next 7 days of passes ≥ 10°. The values pass through the URL so the page stays shareable.

No JS? Fill the form by hand. The geolocation button needs JavaScript.